| time (UTC) | temp F | wind direction | speed MPH | gust MPH | rain 1hr in | rain 24hr in | rain mn in | humidity % | barometer mb |
| 20260901051633 | 68 | 150 | 0.0 | 0.0 | 0.00 | 0.00 | 0.00 | 55 | 1007.9 |
| 20260901050657 | 68 | 150 | 0.0 | 0.0 | 0.00 | 0.00 | 0.00 | 54 | 1008.0 |
| 20260901045647 | 68 | 148 | 0.0 | 0.0 | 0.00 | 0.00 | 0.00 | 53 | 1008.1 |
| 20260901044659 | 69 | 134 | 0.0 | 0.0 | 0.00 | 0.00 | 0.00 | 49 | 1008.2 |
| 20260901043626 | 70 | 134 | 0.0 | 0.0 | 0.00 | 0.00 | 0.00 | 48 | 1008.1 |
| 20260901042646 | 71 | 134 | 0.0 | 0.0 | 0.00 | 0.00 | 0.00 | 46 | 1008.0 |
| 20260901041656 | 73 | 134 | 0.0 | 0.0 | 0.00 | 0.00 | 0.00 | 43 | 1007.8 |
| 20260901040656 | 74 | 151 | 0.0 | 1.0 | 0.00 | 0.00 | 0.00 | 41 | 1007.8 |
| 20260901035622 | 74 | 142 | 0.0 | 1.0 | 0.00 | 0.00 | 0.00 | 40 | 1007.7 |
| 20260901034611 | 74 | 135 | 0.0 | 0.0 | 0.00 | 0.00 | 0.00 | 38 | 1007.6 |
| 20260901033631 | 74 | 143 | 0.0 | 2.0 | 0.00 | 0.00 | 0.00 | 36 | 1007.5 |
| 20260901032645 | 74 | 142 | 0.0 | 2.0 | 0.00 | 0.00 | 0.00 | 33 | 1007.3 |
| 20260901031619 | 74 | 148 | 0.0 | 0.0 | 0.00 | 0.00 | 0.00 | 33 | 1007.3 |
| 20260901030551 | 73 | 150 | 0.0 | 0.0 | 0.00 | 0.00 | 0.00 | 35 | 1007.2 |
| 20260901023242 | 72 | 158 | 0.0 | 0.0 | 0.00 | 0.00 | 0.00 | 38 | 1007.0 |
| 20260901022233 | 72 | 158 | 0.0 | 1.0 | 0.00 | 0.00 | 0.00 | 40 | 1006.9 |
| 20260901021200 | 73 | 157 | 0.0 | 1.0 | 0.00 | 0.00 | 0.00 | 39 | 1006.9 |
| 20260901012707 | 82 | 131 | 0.0 | 0.0 | 0.00 | 0.00 | 0.00 | 38 | 1007.0 |
| 20260901011710 | 85 | 127 | 0.0 | 0.0 | 0.00 | 0.00 | 0.00 | 29 | 1007.2 |
| 20260901010659 | 87 | 162 | 0.0 | 0.0 | 0.00 | 0.00 | 0.00 | 28 | 1007.2 |
| 20260901005631 | 88 | 172 | 0.0 | 0.0 | 0.00 | 0.00 | 0.00 | 28 | 1007.3 |
| 20260901001143 | 85 | 95 | 0.0 | 0.0 | 0.00 | 0.00 | 0.00 | 24 | 1007.6 |
| 20260901000204 | 85 | 91 | 0.0 | 0.0 | 0.00 | 0.00 | 0.00 | 25 | 1007.8 |
| 20260831235141 | 85 | 177 | 0.0 | 0.0 | 0.00 | 0.00 | 0.00 | 25 | 1007.9 |
| 20260831234107 | 85 | 178 | 0.0 | 0.0 | 0.00 | 0.00 | 0.00 | 26 | 1008.0 |
| 20260831233102 | 84 | 179 | 0.0 | 0.0 | 0.00 | 0.00 | 0.00 | 26 | 1008.1 |
| 20260831232116 | 84 | 91 | 0.0 | 0.0 | 0.00 | 0.00 | 0.00 | 26 | 1008.2 |
| 20260831231114 | 84 | 176 | 0.0 | 0.0 | 0.00 | 0.00 | 0.00 | 28 | 1008.4 |
| 20260831230054 | 84 | 96 | 0.0 | 4.0 | 0.00 | 0.00 | 0.00 | 26 | 1008.5 |
| 20260831225058 | 84 | 91 | 0.0 | 0.0 | 0.00 | 0.00 | 0.00 | 27 | 1008.7 |
| 20260831224028 | 83 | 176 | 0.0 | 0.0 | 0.00 | 0.00 | 0.00 | 27 | 1008.9 |
| 20260831223007 | 83 | 179 | 0.0 | 5.0 | 0.00 | 0.00 | 0.00 | 29 | 1009.0 |
| 20260831222004 | 83 | 96 | 0.0 | 4.0 | 0.00 | 0.00 | 0.00 | 28 | 1009.2 |
| 20260831220958 | 82 | 94 | 0.0 | 0.0 | 0.00 | 0.00 | 0.00 | 29 | 1009.3 |
| 20260831215926 | 82 | 94 | 1.0 | 4.0 | 0.00 | 0.00 | 0.00 | 29 | 1009.4 |
| 20260831214857 | 82 | 96 | 0.0 | 3.0 | 0.00 | 0.00 | 0.00 | 29 | 1009.6 |
| 20260831213910 | 82 | 94 | 0.0 | 2.0 | 0.00 | 0.00 | 0.00 | 29 | 1009.8 |
| 20260831212925 | 82 | 179 | 1.0 | 4.0 | 0.00 | 0.00 | 0.00 | 30 | 1009.9 |
| 20260831211936 | 80 | 91 | 2.0 | 6.0 | 0.00 | 0.00 | 0.00 | 31 | 1010.1 |
| 20260831210924 | 80 | 179 | 1.0 | 6.0 | 0.00 | 0.00 | 0.00 | 34 | 1010.1 |
| 20260831204738 | 79 | 178 | 2.0 | 5.0 | 0.00 | 0.00 | 0.00 | 34 | 1010.5 |
| 20260831203749 | 79 | 176 | 1.0 | 5.0 | 0.00 | 0.00 | 0.00 | 35 | 1010.5 |
| 20260831202755 | 78 | 175 | 1.0 | 6.0 | 0.00 | 0.00 | 0.00 | 36 | 1010.7 |
| 20260831201731 | 78 | 177 | 2.0 | 6.0 | 0.00 | 0.00 | 0.00 | 36 | 1011.1 |
| 20260831195651 | 77 | 179 | 1.0 | 5.0 | 0.00 | 0.00 | 0.00 | 36 | 1011.4 |
| 20260831194708 | 77 | 178 | 2.0 | 6.0 | 0.00 | 0.00 | 0.00 | 37 | 1011.7 |
| 20260831193700 | 76 | 177 | 1.0 | 4.0 | 0.00 | 0.00 | 0.00 | 37 | 1011.8 |
| 20260831192642 | 75 | 176 | 2.0 | 7.0 | 0.00 | 0.00 | 0.00 | 39 | 1011.9 |
| 20260831190553 | 74 | 93 | 2.0 | 8.0 | 0.00 | 0.00 | 0.00 | 39 | 1012.5 |
| 20260831185521 | 74 | 94 | 3.0 | 8.0 | 0.00 | 0.00 | 0.00 | 42 | 1012.7 |
| 20260831184524 | 73 | 179 | 2.0 | 7.0 | 0.00 | 0.00 | 0.00 | 42 | 1012.8 |
| 20260831183519 | 72 | 177 | 2.0 | 6.0 | 0.00 | 0.00 | 0.00 | 44 | 1013.0 |
| 20260831182449 | 72 | 179 | 2.0 | 6.0 | 0.00 | 0.00 | 0.00 | 45 | 1013.2 |
| 20260831181506 | 71 | 177 | 1.0 | 5.0 | 0.00 | 0.00 | 0.00 | 48 | 1013.3 |
| 20260831180443 | 70 | 91 | 1.0 | 3.0 | 0.00 | 0.00 | 0.00 | 51 | 1013.4 |
| 20260831175428 | 70 | 91 | 1.0 | 0.0 | 0.00 | 0.00 | 0.00 | 50 | 1013.6 |
| 20260831174419 | 69 | 179 | 1.0 | 5.0 | 0.00 | 0.00 | 0.00 | 53 | 1013.6 |
| 20260831173422 | 69 | 178 | 1.0 | 4.0 | 0.00 | 0.00 | 0.00 | 55 | 1013.6 |
| 20260831171243 | 67 | 176 | 0.0 | 2.0 | 0.00 | 0.00 | 0.00 | 60 | 1013.7 |
| 20260831170254 | 65 | 91 | 0.0 | 0.0 | 0.00 | 0.00 | 0.00 | 62 | 1013.8 |
| 20260831165240 | 64 | 90 | 0.0 | 0.0 | 0.00 | 0.00 | 0.00 | 63 | 1013.9 |
| 20260831161930 | 61 | 179 | 0.0 | 0.0 | 0.00 | 0.00 | 0.00 | 62 | 1014.1 |
| 20260831160926 | 61 | 176 | 0.0 | 0.0 | 0.00 | 0.00 | 0.00 | 62 | 1014.2 |
| 20260831154731 | 58 | 178 | 0.0 | 2.0 | 0.00 | 0.00 | 0.00 | 46 | 1014.2 |
| 20260831153753 | 57 | 179 | 0.0 | 0.0 | 0.00 | 0.00 | 0.00 | 45 | 1014.3 |
| 20260831152718 | 57 | 93 | 0.0 | 0.0 | 0.00 | 0.00 | 0.00 | 46 | 1014.3 |
| 20260831151648 | 56 | 90 | 0.0 | 3.0 | 0.00 | 0.00 | 0.00 | 44 | 1014.3 |
| 20260831145523 | 54 | 179 | 0.0 | 0.0 | 0.00 | 0.00 | 0.00 | 9 | 1014.2 |
| 20260831144451 | 53 | 94 | 0.0 | 0.0 | 0.00 | 0.00 | 0.00 | 1 | 1014.1 |
| 20260831143439 | 53 | 94 | 0.0 | 0.0 | 0.00 | 0.00 | 0.00 | 1 | 1014.2 |
| 20260831142416 | 53 | 93 | 0.0 | 0.0 | 0.00 | 0.00 | 0.00 | 12 | 1014.2 |
| 20260831141415 | 53 | 176 | 0.0 | 0.0 | 0.00 | 0.00 | 0.00 | 14 | 1014.1 |
| 20260831135258 | 53 | 176 | 0.0 | 0.0 | 0.00 | 0.00 | 0.00 | 1 | 1014.1 |
| 20260831134301 | 52 | 176 | 0.0 | 0.0 | 0.00 | 0.00 | 0.00 | 1 | 1014.0 |
| 20260831131017 | 52 | 176 | 0.0 | 0.0 | 0.00 | 0.00 | 0.00 | 4 | 1014.0 |
| 20260831125943 | 53 | 176 | 0.0 | 0.0 | 0.00 | 0.00 | 0.00 | 12 | 1014.0 |
| 20260831124924 | 53 | 176 | 0.0 | 0.0 | 0.00 | 0.00 | 0.00 | 16 | 1014.0 |
| 20260831123851 | 53 | 176 | 0.0 | 0.0 | 0.00 | 0.00 | 0.00 | 15 | 1013.9 |
| 20260831122846 | 53 | 174 | 0.0 | 0.0 | 0.00 | 0.00 | 0.00 | 17 | 1014.0 |
| 20260831121851 | 54 | 174 | 0.0 | 0.0 | 0.00 | 0.00 | 0.00 | 28 | 1014.0 |
| 20260831120818 | 54 | 174 | 0.0 | 0.0 | 0.00 | 0.00 | 0.00 | 28 | 1014.0 |
| 20260831115757 | 54 | 174 | 0.0 | 0.0 | 0.00 | 0.00 | 0.00 | 14 | 1014.0 |
| 20260831114738 | 54 | 162 | 0.0 | 0.0 | 0.00 | 0.00 | 0.00 | 22 | 1014.0 |
| 20260831113736 | 55 | 162 | 0.0 | 0.0 | 0.00 | 0.00 | 0.00 | 33 | 1014.0 |
| 20260831112722 | 55 | 162 | 0.0 | 0.0 | 0.00 | 0.00 | 0.00 | 33 | 1014.0 |
| 20260831111701 | 55 | 162 | 0.0 | 0.0 | 0.00 | 0.00 | 0.00 | 15 | 1014.0 |
| 20260831104424 | 55 | 156 | 0.0 | 0.0 | 0.00 | 0.00 | 0.00 | 13 | 1014.0 |
| 20260831103436 | 55 | 156 | 0.0 | 0.0 | 0.00 | 0.00 | 0.00 | 15 | 1014.0 |
| 20260831102423 | 55 | 156 | 0.0 | 0.0 | 0.00 | 0.00 | 0.00 | 21 | 1014.1 |
| 20260831101412 | 56 | 156 | 0.0 | 0.0 | 0.00 | 0.00 | 0.00 | 28 | 1014.1 |
| 20260831094211 | 56 | 155 | 0.0 | 0.0 | 0.00 | 0.00 | 0.00 | 19 | 1014.4 |
| 20260831085859 | 56 | 153 | 0.0 | 0.0 | 0.00 | 0.00 | 0.00 | 24 | 1014.6 |
| 20260831083736 | 56 | 153 | 0.0 | 0.0 | 0.00 | 0.00 | 0.00 | 21 | 1014.7 |
| 20260831082747 | 56 | 153 | 0.0 | 0.0 | 0.00 | 0.00 | 0.00 | 32 | 1014.6 |
| 20260831081718 | 56 | 153 | 0.0 | 0.0 | 0.00 | 0.00 | 0.00 | 32 | 1014.8 |
| 20260831080735 | 57 | 151 | 0.0 | 0.0 | 0.00 | 0.00 | 0.00 | 37 | 1014.9 |
| 20260831075724 | 57 | 151 | 0.0 | 0.0 | 0.00 | 0.00 | 0.00 | 44 | 1014.9 |
| 20260831074703 | 57 | 150 | 0.0 | 0.0 | 0.00 | 0.00 | 0.00 | 46 | 1014.9 |
| 20260831073656 | 58 | 151 | 0.0 | 0.0 | 0.00 | 0.00 | 0.00 | 46 | 1014.9 |
| 20260831072718 | 58 | 151 | 0.0 | 0.0 | 0.00 | 0.00 | 0.00 | 46 | 1015.0 |
| 20260831071710 | 58 | 151 | 0.0 | 0.0 | 0.00 | 0.00 | 0.00 | 45 | 1014.9 |
| 20260831070711 | 58 | 151 | 0.0 | 0.0 | 0.00 | 0.00 | 0.00 | 50 | 1015.0 |
| 20260831065710 | 58 | 151 | 0.0 | 0.0 | 0.00 | 0.00 | 0.00 | 52 | 1015.0 |
| 20260831064640 | 59 | 151 | 0.0 | 0.0 | 0.00 | 0.00 | 0.00 | 54 | 1015.0 |
| 20260831062458 | 59 | 150 | 0.0 | 0.0 | 0.00 | 0.00 | 0.00 | 60 | 1015.1 |
| 20260831061431 | 60 | 150 | 0.0 | 0.0 | 0.00 | 0.00 | 0.00 | 61 | 1015.2 |
| 20260831055307 | 61 | 148 | 0.0 | 0.0 | 0.00 | 0.00 | 0.00 | 63 | 1015.2 |
| 20260831054242 | 61 | 152 | 0.0 | 0.0 | 0.00 | 0.00 | 0.00 | 63 | 1015.2 |
| 20260831053245 | 61 | 152 | 0.0 | 0.0 | 0.00 | 0.00 | 0.00 | 63 | 1015.4 |